M0ZPG Weather Reports


Display with metric or nautical units.
time (UTC)temp
F
wind
direction
speed
MPH
gust
MPH
rain 1hr
in
rain 24hr
in
rain mn
in
humidity
%
barometer
mb
20260906144505 77 167 3.0 10.0 0.00 0.00 0.00 45 1018.7
20260906143605 78 140 2.0 7.0 0.00 0.00 0.00 45 1019.0
20260906142705 78 145 3.0 9.0 0.00 0.00 0.00 44 1018.9
20260906141803 79 157 2.0 7.0 0.00 0.00 0.00 45 1018.8
20260906141120 80 144 3.0 10.0 0.00 0.00 0.00 45 1019.0
20260906140005 80 155 3.0 11.0 0.00 0.00 0.00 44 1019.1
20260906135405 81 158 3.0 10.0 0.00 0.00 0.00 43 1019.0
20260906134505 81 129 3.0 13.0 0.00 0.00 0.00 43 1019.3
20260906133605 82 162 2.0 8.0 0.00 0.00 0.00 42 1019.4
20260906132916 81 153 2.0 8.0 0.00 0.00 0.00 43 1019.5
20260906131803 81 188 2.0 8.0 0.00 0.00 0.00 44 1019.8
20260906130906 80 177 2.0 10.0 0.00 0.00 0.00 44 1019.9
20260906130003 79 153 2.0 8.0 0.00 0.00 0.00 45 1020.0
20260906125403 78 148 2.0 9.0 0.00 0.00 0.00 47 1019.9
20260906124505 78 154 2.0 12.0 0.00 0.00 0.00 47 1020.1
20260906123606 78 154 3.0 12.0 0.00 0.00 0.00 47 1020.1
20260906122703 78 178 3.0 8.0 0.00 0.00 0.00 47 1020.2
20260906121804 78 168 3.0 9.0 0.00 0.00 0.00 46 1020.3
20260906120903 78 168 3.0 12.0 0.00 0.00 0.00 46 1020.3
20260906120005 78 162 3.0 9.0 0.00 0.00 0.00 47 1020.4
20260906115404 78 158 3.0 9.0 0.00 0.00 0.00 46 1020.5
20260906114505 78 147 3.0 9.0 0.00 0.00 0.00 47 1020.5
20260906113605 78 161 3.0 10.0 0.00 0.00 0.00 47 1020.7
20260906112703 78 164 3.0 8.0 0.00 0.00 0.00 49 1020.6
20260906111805 78 202 2.0 8.0 0.00 0.00 0.00 48 1020.6
20260906110903 77 157 3.0 11.0 0.00 0.00 0.00 51 1020.8
20260906110003 77 172 2.0 7.0 0.00 0.00 0.00 52 1020.9
20260906105403 76 163 2.0 8.0 0.00 0.00 0.00 54 1020.9
20260906104503 75 158 4.0 10.0 0.00 0.00 0.00 54 1021.0
20260906103605 76 157 3.0 9.0 0.00 0.00 0.00 54 1021.0
20260906102705 75 150 3.0 7.0 0.00 0.00 0.00 56 1021.1
20260906102015 74 170 2.0 7.0 0.00 0.00 0.00 59 1021.1
20260906100904 73 133 2.0 7.0 0.00 0.00 0.00 61 1021.1
20260906100004 73 142 2.0 8.0 0.00 0.00 0.00 62 1021.1
20260906095405 72 150 2.0 9.0 0.00 0.00 0.00 62 1021.2
20260906094503 72 159 3.0 9.0 0.00 0.00 0.00 63 1021.2
20260906093603 72 173 2.0 8.0 0.00 0.00 0.00 63 1021.3
20260906092705 71 144 2.0 8.0 0.00 0.00 0.00 63 1021.3
20260906092015 71 135 2.0 9.0 0.00 0.00 0.00 65 1021.6
20260906090903 70 136 2.0 5.0 0.00 0.00 0.00 68 1021.5
20260906090215 69 135 2.0 5.0 0.00 0.00 0.00 70 1021.7
20260906085405 68 135 3.0 7.0 0.00 0.00 0.00 71 1021.7
20260906084508 68 137 2.0 6.0 0.00 0.00 0.00 73 1021.7
20260906083817 67 137 3.0 8.0 0.00 0.00 0.00 74 1021.7
20260906082919 67 134 2.0 8.0 0.00 0.00 0.00 76 1021.7
20260906081803 66 136 2.0 8.0 0.00 0.00 0.00 78 1021.8
20260906080905 65 124 2.0 8.0 0.00 0.00 0.00 78 1022.0
20260906080008 64 156 1.0 6.0 0.00 0.00 0.00 78 1022.2
20260906075403 64 129 1.0 6.0 0.00 0.00 0.00 78 1022.1
20260906074503 64 113 2.0 4.0 0.00 0.00 0.00 77 1022.0
20260906073606 64 111 2.0 7.0 0.00 0.00 0.00 76 1022.0
20260906072914 64 104 1.0 5.0 0.00 0.00 0.00 76 1021.9
20260906071805 63 139 1.0 5.0 0.00 0.00 0.00 78 1022.0
20260906070903 63 148 1.0 4.0 0.00 0.00 0.00 79 1022.1
20260906070006 62 153 1.0 4.0 0.00 0.00 0.00 80 1022.2
20260906065613 62 160 0.0 4.0 0.00 0.00 0.00 81 1022.0
20260906064503 60 161 0.0 2.0 0.00 0.00 0.00 82 1022.3
20260906063618 60 163 0.0 2.0 0.00 0.00 0.00 82 1022.3
20260906062705 59 163 0.0 2.0 0.00 0.00 0.00 83 1022.3
20260906061806 59 163 0.0 2.0 0.00 0.00 0.00 83 1022.5
20260906060903 59 163 0.0 1.0 0.00 0.00 0.00 83 1022.4
20260906060217 59 163 0.0 1.0 0.00 0.00 0.00 82 1022.2
20260906055403 59 164 0.0 1.0 0.00 0.00 0.00 82 1022.2
20260906054505 59 164 0.0 4.0 0.00 0.00 0.00 81 1022.3
20260906053605 59 165 0.0 2.0 0.00 0.00 0.00 81 1022.4
20260906052706 59 165 1.0 4.0 0.00 0.00 0.00 81 1022.5
20260906052013 59 163 0.0 4.0 0.00 0.00 0.00 81 1022.4
20260906050906 59 0 0.0 0.0 0.00 0.00 0.00 82 1022.6
20260906050003 58 0 0.0 0.0 0.00 0.00 0.00 82 1022.6
20260906045406 58 0 0.0 0.0 0.00 0.00 0.00 82 1022.6
20260906044505 58 0 0.0 0.0 0.00 0.00 0.00 82 1022.6
20260906043605 58 0 0.0 0.0 0.00 0.00 0.00 83 1022.6
20260906042703 58 0 0.0 0.0 0.00 0.00 0.00 82 1022.6
20260906041803 58 0 0.0 0.0 0.00 0.00 0.00 82 1022.6
20260906040905 58 0 0.0 0.0 0.00 0.00 0.00 82 1022.7
20260906040005 58 0 0.0 0.0 0.00 0.00 0.00 81 1022.7
20260906035615 58 0 0.0 0.0 0.00 0.00 0.00 81 1022.8
20260906034505 58 0 0.0 0.0 0.00 0.00 0.00 81 1022.8
20260906033603 58 0 0.0 0.0 0.00 0.00 0.00 81 1022.8
20260906032703 58 0 0.0 0.0 0.00 0.00 0.00 81 1022.8
20260906031805 58 0 0.0 0.0 0.00 0.00 0.00 81 1022.7
20260906030905 58 0 0.0 0.0 0.00 0.00 0.00 80 1022.8
20260906030003 58 0 0.0 0.0 0.00 0.00 0.00 80 1023.0
20260906025405 58 0 0.0 0.0 0.00 0.00 0.00 80 1023.1
20260906024506 58 0 0.0 0.0 0.00 0.00 0.00 80 1023.2
20260906023603 58 0 0.0 0.0 0.00 0.00 0.00 80 1023.3
20260906022706 58 0 0.0 0.0 0.00 0.00 0.00 80 1023.6
20260906021803 58 0 0.0 0.0 0.00 0.00 0.00 81 1023.6
20260906020905 58 0 0.0 0.0 0.00 0.00 0.00 80 1023.9
20260906020005 58 0 0.0 0.0 0.00 0.00 0.00 80 1023.7
20260906015616 58 0 0.0 0.0 0.00 0.00 0.00 80 1023.9
20260906014506 58 0 0.0 0.0 0.00 0.00 0.00 80 1023.9
20260906013816 58 0 0.0 0.0 0.00 0.00 0.00 79 1024.0
20260906012705 59 0 0.0 0.0 0.00 0.00 0.00 79 1024.0
20260906011805 59 0 0.0 0.0 0.00 0.00 0.00 79 1024.2
20260906010904 59 0 0.0 0.0 0.00 0.00 0.00 79 1024.2
20260906010005 59 0 0.0 0.0 0.00 0.00 0.00 79 1024.1
20260906005405 59 0 0.0 0.0 0.00 0.00 0.00 79 1024.1
20260906004503 59 0 0.0 0.0 0.00 0.00 0.00 79 1024.2
20260906003606 59 0 0.0 0.0 0.00 0.00 0.00 79 1024.2
20260906002703 59 0 0.0 0.0 0.00 0.00 0.00 79 1024.3
20260906001805 59 0 0.0 0.0 0.00 0.00 0.00 78 1024.4
20260906000906 59 0 0.0 0.0 0.00 0.00 0.00 78 1024.5
20260906000003 60 165 0.0 2.0 0.00 0.00 0.00 78 1024.6
20260905235405 60 165 0.0 2.0 0.00 0.00 0.00 78 1024.5
20260905234503 59 165 0.0 1.0 0.00 0.00 0.00 78 1024.4
20260905232706 60 0 0.0 0.0 0.00 0.00 0.00 78 1024.5
20260905231803 60 165 0.0 1.0 0.00 0.00 0.00 77 1024.4
20260905230905 60 165 0.0 1.0 0.00 0.00 0.00 77 1024.4
20260905230005 60 165 0.0 1.0 0.00 0.00 0.00 77 1024.5
20260905225613 60 165 0.0 1.0 0.00 0.00 0.00 77 1024.5
20260905224504 60 0 0.0 0.0 0.00 0.00 0.00 76 1024.5
20260905223605 60 0 0.0 0.0 0.00 0.00 0.00 76 1024.6
20260905222915 61 165 0.0 1.0 0.00 0.00 0.00 76 1024.5
20260905222018 61 165 0.0 1.0 0.00 0.00 0.00 75 1024.5
20260905221115 61 0 0.0 0.0 0.00 0.00 0.00 75 1024.4
20260905220004 61 165 0.0 2.0 0.00 0.00 0.00 75 1024.4
20260905215403 61 165 0.0 2.0 0.00 0.00 0.00 75 1024.5
20260905214716 61 164 0.0 2.0 0.00 0.00 0.00 75 1024.7
20260905213605 61 0 0.0 0.0 0.00 0.00 0.00 74 1024.3
20260905212705 62 162 0.0 2.0 0.00 0.00 0.00 74 1024.2
20260905211805 62 162 0.0 2.0 0.00 0.00 0.00 74 1024.2
20260905210905 62 162 0.0 2.0 0.00 0.00 0.00 73 1024.2
20260905210218 62 162 0.0 1.0 0.00 0.00 0.00 73 1024.2
20260905205614 62 162 0.0 1.0 0.00 0.00 0.00 72 1024.1
20260905204506 63 161 0.0 4.0 0.00 0.00 0.00 72 1024.2
20260905203606 63 162 0.0 2.0 0.00 0.00 0.00 72 1024.1
20260905202703 63 162 0.0 2.0 0.00 0.00 0.00 71 1024.3
20260905200004 64 162 0.0 2.0 0.00 0.00 0.00 69 1024.3
20260905195615 65 162 0.0 2.0 0.00 0.00 0.00 68 1024.2
20260905194508 65 161 1.0 4.0 0.00 0.00 0.00 68 1024.1
20260905193605 66 161 1.0 4.0 0.00 0.00 0.00 67 1024.2
20260905191804 66 166 1.0 6.0 0.00 0.00 0.00 65 1024.0
20260905190903 67 155 1.0 6.0 0.00 0.00 0.00 63 1023.7
20260905190214 68 149 0.0 3.0 0.00 0.00 0.00 62 1023.7
20260905185403 68 146 0.0 3.0 0.00 0.00 0.00 59 1023.7
20260905184505 69 169 1.0 5.0 0.00 0.00 0.00 57 1023.6
20260905183815 70 212 0.0 4.0 0.00 0.00 0.00 54 1023.5
20260905182708 70 222 0.0 1.0 0.00 0.00 0.00 51 1023.4
20260905181805 71 222 0.0 2.0 0.00 0.00 0.00 50 1023.3
20260905180904 71 221 0.0 1.0 0.00 0.00 0.00 49 1023.3
20260905180006 72 221 0.0 1.0 0.00 0.00 0.00 49 1023.2
20260905175405 72 221 0.0 3.0 0.00 0.00 0.00 49 1023.2
20260905174506 72 221 0.0 4.0 0.00 0.00 0.00 48 1023.2
20260905173606 73 218 0.0 1.0 0.00 0.00 0.00 48 1023.3
20260905172704 73 217 0.0 2.0 0.00 0.00 0.00 47 1023.3
20260905171804 74 217 0.0 2.0 0.00 0.00 0.00 46 1023.3
20260905170906 74 217 0.0 2.0 0.00 0.00 0.00 45 1023.3
20260905170005 74 217 0.0 2.0 0.00 0.00 0.00 45 1023.3
20260905165406 75 216 0.0 3.0 0.00 0.00 0.00 45 1023.3
20260905164504 75 224 0.0 3.0 0.00 0.00 0.00 44 1023.3
20260905163606 76 272 0.0 2.0 0.00 0.00 0.00 44 1023.3
20260905162919 76 269 1.0 4.0 0.00 0.00 0.00 44 1023.3
20260905161805 76 207 0.0 2.0 0.00 0.00 0.00 43 1023.4
20260905160905 76 198 1.0 4.0 0.00 0.00 0.00 43 1023.4
20260905160216 76 207 1.0 5.0 0.00 0.00 0.00 43 1023.4
20260905155612 77 196 1.0 7.0 0.00 0.00 0.00 43 1023.4
20260905154503 76 287 1.0 4.0 0.00 0.00 0.00 43 1023.4
20260905153605 76 303 1.0 4.0 0.00 0.00 0.00 43 1023.5
20260905152703 76 237 1.0 4.0 0.00 0.00 0.00 43 1023.6
20260905151805 76 213 1.0 2.0 0.00 0.00 0.00 45 1023.6
20260905150905 75 250 0.0 3.0 0.00 0.00 0.00 45 1023.6
20260905150005 75 271 1.0 3.0 0.00 0.00 0.00 46 1023.5
20260905145406 75 267 1.0 3.0 0.00 0.00 0.00 47 1023.6